Location: Hackbridge
(51.3833°N, 0.1500°W)
Time: 18:20:51
(UTC+00:00)

Cosmos 2084 - Pass Details

Date: 13 October 2019
Orbit: 555 x 628 km, 62.8° (Epoch: 20 November)

Event Time Altitude Azimuth Distance (km) Brightness Sun altitude
Rises 19:44:52 0° 233° (SW) 2,894 7.5 -24.3°
Reaches altitude 10° 19:47:10 10° 236° (SW) 1,984 6.6 -24.7°
Maximum altitude 19:51:39 67° 319° (NW) 666 3.8 -25.3°
Enters shadow 19:51:56 65° 344° (NNW) 676 3.7 -25.4°
